Location: ??????
(55.7522°N, 37.6156°E)
Time: 17:49:13
(UTC+00:00)

Cosmos 1603 - Pass Details

Date: 14 June 2025
Orbit: 831 x 857 km, 71.0° (Epoch: 12 July)

Event Time Altitude Azimuth Distance (km) Brightness Sun altitude
Rises 20:25:24 0° 325° (NW) 3,389 8.4 -9.8°
Reaches altitude 10° 20:27:50 10° 325° (NW) 2,453 7.4 -9.8°
Maximum altitude 20:33:28 82° 238° (WSW) 850 3.7 -10.0°
Enters shadow 20:38:43 12° 152° (SSE) 2,308 5.4 -10.2°
